OBJECT BT, 68481

Orbit data source: Space-Track

You're viewing an Uncataloged Satellite

Recently launched and/or uncataloged satellites may have evolving metadata. Metadata may include but not limited to: Owner, Maufacturer, Bus, Motor, and Mission.

OBJECT BT, 68481 is a satellite in SSO that was launched on Mon, 30 Mar 2026 UTC via an FALCON 9 launch vehicle from the Air Force Western Test Range (AFWTR). Unknown objects in Earth's orbit typically refer to objects detected orbiting the Earth but have not yet been identified or cataloged. These objects could be anything from previously untracked satellites, spent rocket stages, debris from satellite collisions, or even natural meteoroids temporarily captured by Earth's gravity.

Loading next visibility...
Identifier
68481, 2026-067BT
Orbit
SSO
Country
Flag of TBDTBD
Related business
Manufacturer
PYRAS
Mission
Operational spacecraft
Bus & Motor
CUBESAT 8U, Unknown motor
Mass
12 kg wet, 12 kg dry
Launch date (UTC)
2026-03-30 (3 months ago)
Launch vehicle
FALCON 9
Launch site
Air Force Western Test Range (AFWTR)
Object type
Unknown
Shape & HBR
Unknown shape, 0.2 m
Radar Cross Section
Medium (>0.1 m² and <1 m²)

Expand to show TLE details & history
Last TLE update: 11 hours ago

TLE from 11 hours ago
0 OBJECT BT
1 68481U 26067BT  26171.38528566  .00000473  00000-0  51971-4 0  9999
2 68481  97.7671 129.6956 0001786 337.9026  22.2116 14.92130431 12203
Epoch: 2026-06-20T09:14Z
TLE epoch observation values (Epoch: 2026-06-20T09:14:48.681Z)
Latitude
0.00004°
Longitude
82.39209°
Altitude
593.183 km
Speed
7.564 km/s
True Right ascension
08h 38m 46s
True Declination
0° 00' 00"
Sunlit
Object was in daylight at epoch
Visualization orbit readout
Latitude
Unknown
Longitude
Unknown
Altitude
Unknown
Speed
Unknown
Apparent Right ascension
Unknown
Apparent Declination
Unknown
Sunlit
N/A
Visualization observer readout
Local Sidereal Time
07:11:50
Azimuth
Unknown
Elevation
Unknown
Doppler factor
Unknown
Orbital elements
Apogee altitude
589.557 km
Perigee altitude
587.068 km
Semi-major axis
6,966.45 km
Eccentricity
0.00018
Inclination
97.7671°
RAAN
129.6956°
Arg. of periapsis
337.9026°
True anomaly
22.21934°
Mean anomaly
22.2116°
Eccentric anomaly
22.21547°
Mean motion
3.73272 °/min
Orbital period
96.44 mins
BSTAR
0.000051971
Loading maneuver chart data...
Computing Atmospheric mass density...
Loading historical data...
Loading historical data...
Loading historical data...
Loading historical data...
Loading historical data...
Loading historical data...
Loading historical data...

Documentation

Showing up to 5 results
|